owner,sensor,date,latitude,longitude,vertical_datum,direction_of_sea_water_velocity,sea_water_speed,upward_sea_water_velocity,qcFlag 
TABS,ioos:station:wmo:42050:1,2006-05-01T00:00:00Z,28.8425,-94.2433,2.0,229.5092383,16.81756522,-99999.0,'11111222,11111222,99999999' 
TABS,ioos:station:wmo:42050:1,2006-05-01T00:30:00Z,28.8425,-94.2433,2.0,229.7179056,15.55957904,-99999.0,'11111222,11111222,99999999' 
TABS,ioos:station:wmo:42050:1,2006-05-01T01:00:00Z,28.8425,-94.2433,2.0,225.5877421,19.29088904,-99999.0,'11111222,11111222,99999999' 
TABS,ioos:station:wmo:42050:1,2006-05-01T01:30:00Z,28.8425,-94.2433,2.0,229.5902168,19.43707797,-99999.0,'11111222,11111222,99999999' 
TABS,ioos:station:wmo:42050:1,2006-05-01T02:00:00Z,28.8425,-94.2433,2.0,229.7714592,20.65547143,-99999.0,'11111222,11111222,99999999' 
TABS,ioos:station:wmo:42050:1,2006-05-01T02:30:00Z,28.8425,-94.2433,2.0,236.8323212,23.10422472,-99999.0,'11111222,11111222,99999999' 
TABS,ioos:station:wmo:42050:1,2006-05-01T03:00:00Z,28.8425,-94.2433,2.0,247.4131221,26.42692756,-99999.0,'11111222,11111222,99999999' 
TABS,ioos:station:wmo:42050:1,2006-05-01T03:30:00Z,28.8425,-94.2433,2.0,251.801812,27.50572668,-99999.0,'11111222,11111222,99999999' 
TABS,ioos:station:wmo:42050:1,2006-05-01T04:00:00Z,28.8425,-94.2433,2.0,258.3116522,27.34702909,-99999.0,'11111222,11111222,99999999' 
TABS,ioos:station:wmo:42050:1,2006-05-01T04:30:00Z,28.8425,-94.2433,2.0,266.3848443,27.91553689,-99999.0,'11111222,11111222,99999999' 
TABS,ioos:station:wmo:42050:1,2006-05-01T05:00:00Z,28.8425,-94.2433,2.0,270.8651115,25.84294294,-99999.0,'11111222,11111222,99999999' 
TABS,ioos:station:wmo:42050:1,2006-05-01T05:30:00Z,28.8425,-94.2433,2.0,276.3567811,27.3682462,-99999.0,'11111222,11111222,99999999' 
TABS,ioos:station:wmo:42050:1,2006-05-01T06:00:00Z,28.8425,-94.2433,2.0,279.6671821,24.41669306,-99999.0,'11111222,11111222,99999999' 
TABS,ioos:station:wmo:42050:1,2006-05-01T06:30:00Z,28.8425,-94.2433,2.0,287.5824447,24.43130164,-99999.0,'11111222,11111222,99999999' 
TABS,ioos:station:wmo:42050:1,2006-05-01T07:00:00Z,28.8425,-94.2433,2.0,295.2343833,25.02835392,-99999.0,'11111222,11111222,99999999' 
TABS,ioos:station:wmo:42050:1,2006-05-01T07:30:00Z,28.8425,-94.2433,2.0,300.293966,25.51387466,-99999.0,'11111222,11111222,99999999' 
TABS,ioos:station:wmo:42050:1,2006-05-01T08:00:00Z,28.8425,-94.2433,2.0,311.4938486,22.42899017,-99999.0,'11111222,11111222,99999999' 
TABS,ioos:station:wmo:42050:1,2006-05-01T08:30:00Z,28.8425,-94.2433,2.0,319.6731632,23.34849246,-99999.0,'11111222,11111222,99999999' 
TABS,ioos:station:wmo:42050:1,2006-05-01T09:00:00Z,28.8425,-94.2433,2.0,319.4787422,21.82430984,-99999.0,'11111222,11111222,99999999' 
TABS,ioos:station:wmo:42050:1,2006-05-01T09:30:00Z,28.8425,-94.2433,2.0,320.6190416,22.82191929,-99999.0,'11111222,11111222,99999999' 
TABS,ioos:station:wmo:42050:1,2006-05-01T10:00:00Z,28.8425,-94.2433,2.0,323.7274898,21.11114634,-99999.0,'11111222,11111222,99999999' 
TABS,ioos:station:wmo:42050:1,2006-05-01T10:30:00Z,28.8425,-94.2433,2.0,324.5582168,17.41740796,-99999.0,'11111222,11111222,99999999' 
TABS,ioos:station:wmo:42050:1,2006-05-01T11:00:00Z,28.8425,-94.2433,2.0,321.2037491,18.97672785,-99999.0,'11111222,11111222,99999999' 
TABS,ioos:station:wmo:42050:1,2006-05-01T11:30:00Z,28.8425,-94.2433,2.0,319.9371871,17.09053539,-99999.0,'11111222,11111222,99999999' 
TABS,ioos:station:wmo:42050:1,2006-05-01T12:00:00Z,28.8425,-94.2433,2.0,323.1209785,12.16400016,-99999.0,'11111222,11111222,99999999' 
TABS,ioos:station:wmo:42050:1,2006-05-01T12:30:00Z,28.8425,-94.2433,2.0,313.553608,13.16345319,-99999.0,'11111222,11111222,99999999' 
TABS,ioos:station:wmo:42050:1,2006-05-01T13:00:00Z,28.8425,-94.2433,2.0,308.9264159,11.76157302,-99999.0,'11111222,11111222,99999999' 
TABS,ioos:station:wmo:42050:1,2006-05-01T13:30:00Z,28.8425,-94.2433,2.0,308.8571149,10.90255475,-99999.0,'11111222,11111222,99999999' 
TABS,ioos:station:wmo:42050:1,2006-05-01T14:00:00Z,28.8425,-94.2433,2.0,303.3862551,8.359449743,-99999.0,'11133222,11111222,99999999' 
TABS,ioos:station:wmo:42050:1,2006-05-01T14:30:00Z,28.8425,-94.2433,2.0,300.841011,10.37740334,-99999.0,'11111222,11111222,99999999' 
TABS,ioos:station:wmo:42050:1,2006-05-01T15:00:00Z,28.8425,-94.2433,2.0,297.3885666,7.782319706,-99999.0,'11133222,11111222,99999999' 
TABS,ioos:station:wmo:42050:1,2006-05-01T15:30:00Z,28.8425,-94.2433,2.0,295.8592945,10.52373508,-99999.0,'11111222,11111222,99999999' 
TABS,ioos:station:wmo:42050:1,2006-05-01T16:00:00Z,28.8425,-94.2433,2.0,306.543377,8.414136914,-99999.0,'11133222,11111222,99999999' 
TABS,ioos:station:wmo:42050:1,2006-05-01T16:30:00Z,28.8425,-94.2433,2.0,303.0478362,9.150355184,-99999.0,'11133222,11111222,99999999' 
TABS,ioos:station:wmo:42050:1,2006-05-01T17:00:00Z,28.8425,-94.2433,2.0,301.3333629,9.845938249,-99999.0,'11133222,11111222,99999999' 
TABS,ioos:station:wmo:42050:1,2006-05-01T17:30:00Z,28.8425,-94.2433,2.0,307.9814116,12.7884049,-99999.0,'11111222,11111222,99999999' 
TABS,ioos:station:wmo:42050:1,2006-05-01T18:00:00Z,28.8425,-94.2433,2.0,317.2999958,14.27383971,-99999.0,'11111222,11111222,99999999' 
TABS,ioos:station:wmo:42050:1,2006-05-01T18:30:00Z,28.8425,-94.2433,2.0,322.762803,13.7162823,-99999.0,'11111222,11111222,99999999' 
TABS,ioos:station:wmo:42050:1,2006-05-01T19:00:00Z,28.8425,-94.2433,2.0,321.8615817,13.90941048,-99999.0,'11111222,11111222,99999999' 
TABS,ioos:station:wmo:42050:1,2006-05-01T19:30:00Z,28.8425,-94.2433,2.0,326.4170915,11.8955664,-99999.0,'11111222,11111222,99999999' 
TABS,ioos:station:wmo:42050:1,2006-05-01T20:00:00Z,28.8425,-94.2433,2.0,329.137089,15.6338351,-99999.0,'11111222,11111222,99999999' 
TABS,ioos:station:wmo:42050:1,2006-05-01T20:30:00Z,28.8425,-94.2433,2.0,333.1561864,13.77434209,-99999.0,'11111222,11111222,99999999' 
TABS,ioos:station:wmo:42050:1,2006-05-01T21:00:00Z,28.8425,-94.2433,2.0,331.7206531,12.85420165,-99999.0,'11111222,11111222,99999999' 
TABS,ioos:station:wmo:42050:1,2006-05-01T21:30:00Z,28.8425,-94.2433,2.0,333.5944387,11.26535397,-99999.0,'11111222,11111222,99999999' 
TABS,ioos:station:wmo:42050:1,2006-05-01T22:00:00Z,28.8425,-94.2433,2.0,337.7168623,11.92020554,-99999.0,'11111222,11111222,99999999' 
TABS,ioos:station:wmo:42050:1,2006-05-01T22:30:00Z,28.8425,-94.2433,2.0,331.274147,9.487676217,-99999.0,'11133222,11111222,99999999' 
TABS,ioos:station:wmo:42050:1,2006-05-01T23:00:00Z,28.8425,-94.2433,2.0,331.0581613,8.410380491,-99999.0,'11133222,11111222,99999999' 
TABS,ioos:station:wmo:42050:1,2006-05-01T23:30:00Z,28.8425,-94.2433,2.0,306.8521466,6.336000316,-99999.0,'11133222,11111222,99999999' 
TABS,ioos:station:wmo:42050:1,2006-05-02T00:00:00Z,28.8425,-94.2433,2.0,295.1785637,6.652014732,-99999.0,'11133222,11111222,99999999' 
TABS,ioos:station:wmo:42050:1,2006-05-02T00:30:00Z,28.8425,-94.2433,2.0,284.7681894,7.218448587,-99999.0,'11133222,11111222,99999999' 
TABS,ioos:station:wmo:42050:1,2006-05-02T01:00:00Z,28.8425,-94.2433,2.0,270.6680306,9.440640868,-99999.0,'11133222,11111222,99999999' 
TABS,ioos:station:wmo:42050:1,2006-05-02T01:30:00Z,28.8425,-94.2433,2.0,264.65251,10.19436119,-99999.0,'11111222,11111222,99999999' 
TABS,ioos:station:wmo:42050:1,2006-05-02T02:00:00Z,28.8425,-94.2433,2.0,256.5567429,8.430990452,-99999.0,'11133222,11111222,99999999' 
TABS,ioos:station:wmo:42050:1,2006-05-02T02:30:00Z,28.8425,-94.2433,2.0,260.0535974,10.71097568,-99999.0,'11111222,11111222,99999999' 
TABS,ioos:station:wmo:42050:1,2006-05-02T03:00:00Z,28.8425,-94.2433,2.0,255.8238954,9.963392996,-99999.0,'11133222,11111222,99999999' 
TABS,ioos:station:wmo:42050:1,2006-05-02T03:30:00Z,28.8425,-94.2433,2.0,259.8911863,9.913889247,-99999.0,'11133222,11111222,99999999' 
TABS,ioos:station:wmo:42050:1,2006-05-02T04:00:00Z,28.8425,-94.2433,2.0,265.0053917,12.17622684,-99999.0,'11111222,11111222,99999999' 
TABS,ioos:station:wmo:42050:1,2006-05-02T04:30:00Z,28.8425,-94.2433,2.0,274.8018435,16.36743718,-99999.0,'11111222,11111222,99999999' 
TABS,ioos:station:wmo:42050:1,2006-05-02T05:00:00Z,28.8425,-94.2433,2.0,274.9951379,16.88411384,-99999.0,'11111222,11111222,99999999' 
TABS,ioos:station:wmo:42050:1,2006-05-02T05:30:00Z,28.8425,-94.2433,2.0,265.452267,18.03677632,-99999.0,'11111222,11111222,99999999' 
TABS,ioos:station:wmo:42050:1,2006-05-02T06:00:00Z,28.8425,-94.2433,2.0,267.9680345,19.18205672,-99999.0,'11111222,11111222,99999999' 
TABS,ioos:station:wmo:42050:1,2006-05-02T06:30:00Z,28.8425,-94.2433,2.0,279.9896543,21.27248458,-99999.0,'11111222,11111222,99999999' 
TABS,ioos:station:wmo:42050:1,2006-05-02T07:00:00Z,28.8425,-94.2433,2.0,280.0928057,21.22848087,-99999.0,'11111222,11111222,99999999' 
TABS,ioos:station:wmo:42050:1,2006-05-02T07:30:00Z,28.8425,-94.2433,2.0,289.5338778,22.10205873,-99999.0,'11111222,11111222,99999999' 
TABS,ioos:station:wmo:42050:1,2006-05-02T08:00:00Z,28.8425,-94.2433,2.0,290.666496,21.93121064,-99999.0,'11111222,11111222,99999999' 
TABS,ioos:station:wmo:42050:1,2006-05-02T08:30:00Z,28.8425,-94.2433,2.0,291.9533902,23.86007754,-99999.0,'11111222,11111222,99999999' 
TABS,ioos:station:wmo:42050:1,2006-05-02T09:00:00Z,28.8425,-94.2433,2.0,290.302058,25.0458819,-99999.0,'11111222,11111222,99999999' 
TABS,ioos:station:wmo:42050:1,2006-05-02T09:30:00Z,28.8425,-94.2433,2.0,292.6295505,23.65076954,-99999.0,'11111222,11111222,99999999' 
TABS,ioos:station:wmo:42050:1,2006-05-02T10:00:00Z,28.8425,-94.2433,2.0,296.9420841,19.04723865,-99999.0,'11111222,11111222,99999999' 
TABS,ioos:station:wmo:42050:1,2006-05-02T10:30:00Z,28.8425,-94.2433,2.0,299.8462831,18.98850705,-99999.0,'11111222,11111222,99999999' 
TABS,ioos:station:wmo:42050:1,2006-05-02T11:00:00Z,28.8425,-94.2433,2.0,311.0179497,17.61413353,-99999.0,'11111222,11111222,99999999' 
TABS,ioos:station:wmo:42050:1,2006-05-02T11:30:00Z,28.8425,-94.2433,2.0,303.3503454,13.55156449,-99999.0,'11111222,11111222,99999999' 
TABS,ioos:station:wmo:42050:1,2006-05-02T12:00:00Z,28.8425,-94.2433,2.0,311.0707789,9.802331355,-99999.0,'11133222,11111222,99999999' 
TABS,ioos:station:wmo:42050:1,2006-05-02T12:30:00Z,28.8425,-94.2433,2.0,303.5526386,9.22746444,-99999.0,'11133222,11111222,99999999' 
TABS,ioos:station:wmo:42050:1,2006-05-02T13:00:00Z,28.8425,-94.2433,2.0,324.4172869,5.877482454,-99999.0,'11133222,11111222,99999999' 
TABS,ioos:station:wmo:42050:1,2006-05-02T13:30:00Z,28.8425,-94.2433,2.0,291.2811215,4.904416377,-99999.0,'11133222,11111222,99999999' 
TABS,ioos:station:wmo:42050:1,2006-05-02T14:00:00Z,28.8425,-94.2433,2.0,305.6662979,5.711260807,-99999.0,'11133222,11111222,99999999' 
TABS,ioos:station:wmo:42050:1,2006-05-02T14:30:00Z,28.8425,-94.2433,2.0,276.2953525,4.195294984,-99999.0,'11133222,11111222,99999999' 
TABS,ioos:station:wmo:42050:1,2006-05-02T15:00:00Z,28.8425,-94.2433,2.0,246.5155187,1.580949082,-99999.0,'11133222,11111222,99999999' 
TABS,ioos:station:wmo:42050:1,2006-05-02T15:30:00Z,28.8425,-94.2433,2.0,247.1059121,3.701580743,-99999.0,'11133222,11111222,99999999' 
TABS,ioos:station:wmo:42050:1,2006-05-02T16:00:00Z,28.8425,-94.2433,2.0,245.82284,4.614780602,-99999.0,'11133222,11111222,99999999' 
TABS,ioos:station:wmo:42050:1,2006-05-02T16:30:00Z,28.8425,-94.2433,2.0,272.3377213,3.923263947,-99999.0,'11133222,11111222,99999999' 
TABS,ioos:station:wmo:42050:1,2006-05-02T17:00:00Z,28.8425,-94.2433,2.0,246.3553047,2.194196892,-99999.0,'11133222,11111222,99999999' 
TABS,ioos:station:wmo:42050:1,2006-05-02T17:30:00Z,28.8425,-94.2433,2.0,239.3324536,3.313397048,-99999.0,'11133222,11111222,99999999' 
TABS,ioos:station:wmo:42050:1,2006-05-02T18:00:00Z,28.8425,-94.2433,2.0,233.0587694,1.614001239,-99999.0,'11133222,11111222,99999999' 
TABS,ioos:station:wmo:42050:1,2006-05-02T18:30:00Z,28.8425,-94.2433,2.0,224.7527219,3.281005943,-99999.0,'11133222,11111222,99999999' 
TABS,ioos:station:wmo:42050:1,2006-05-02T19:00:00Z,28.8425,-94.2433,2.0,207.2550542,4.454570686,-99999.0,'11133222,11111222,99999999' 
TABS,ioos:station:wmo:42050:1,2006-05-02T19:30:00Z,28.8425,-94.2433,2.0,221.5932485,2.380084032,-99999.0,'11133222,11111222,99999999' 
TABS,ioos:station:wmo:42050:1,2006-05-02T20:00:00Z,28.8425,-94.2433,2.0,217.6685861,2.438237068,-99999.0,'11133222,11111222,99999999' 
TABS,ioos:station:wmo:42050:1,2006-05-02T20:30:00Z,28.8425,-94.2433,2.0,231.3202394,4.560274115,-99999.0,'11133222,11111222,99999999' 
TABS,ioos:station:wmo:42050:1,2006-05-02T21:00:00Z,28.8425,-94.2433,2.0,268.0706621,3.862188499,-99999.0,'11133222,11111222,99999999' 
TABS,ioos:station:wmo:42050:1,2006-05-02T21:30:00Z,28.8425,-94.2433,2.0,275.9263429,3.971221475,-99999.0,'11133222,11111222,99999999' 
TABS,ioos:station:wmo:42050:1,2006-05-02T22:00:00Z,28.8425,-94.2433,2.0,254.8998085,6.794593439,-99999.0,'11133222,11111222,99999999' 
TABS,ioos:station:wmo:42050:1,2006-05-02T22:30:00Z,28.8425,-94.2433,2.0,278.1627593,7.536345268,-99999.0,'11133222,11111222,99999999' 
TABS,ioos:station:wmo:42050:1,2006-05-02T23:00:00Z,28.8425,-94.2433,2.0,293.3127952,8.59139686,-99999.0,'11133222,11111222,99999999' 
TABS,ioos:station:wmo:42050:1,2006-05-02T23:30:00Z,28.8425,-94.2433,2.0,275.0925241,11.1540217,-99999.0,'11111222,11111222,99999999' 
TABS,ioos:station:wmo:42050:1,2006-05-03T00:00:00Z,28.8425,-94.2433,2.0,265.4040186,11.60731666,-99999.0,'11111222,11111222,99999999' 
TABS,ioos:station:wmo:42050:1,2006-05-03T00:30:00Z,28.8425,-94.2433,2.0,283.2763041,12.97679853,-99999.0,'11111222,11111222,99999999' 
TABS,ioos:station:wmo:42050:1,2006-05-03T01:00:00Z,28.8425,-94.2433,2.0,278.2815348,11.8030674,-99999.0,'11111222,11111222,99999999' 
TABS,ioos:station:wmo:42050:1,2006-05-03T01:30:00Z,28.8425,-94.2433,2.0,266.2373318,16.91645648,-99999.0,'11111222,11111222,99999999' 
TABS,ioos:station:wmo:42050:1,2006-05-03T02:00:00Z,28.8425,-94.2433,2.0,266.3673467,12.7856834,-99999.0,'11111222,11111222,99999999' 
TABS,ioos:station:wmo:42050:1,2006-05-03T02:30:00Z,28.8425,-94.2433,2.0,271.7506981,13.09611011,-99999.0,'11111222,11111222,99999999' 
TABS,ioos:station:wmo:42050:1,2006-05-03T03:00:00Z,28.8425,-94.2433,2.0,250.4942863,15.57377282,-99999.0,'11111222,11111222,99999999' 
TABS,ioos:station:wmo:42050:1,2006-05-03T03:30:00Z,28.8425,-94.2433,2.0,252.6656941,15.30508739,-99999.0,'11111222,11111222,99999999' 
TABS,ioos:station:wmo:42050:1,2006-05-03T04:00:00Z,28.8425,-94.2433,2.0,252.5666425,14.28619263,-99999.0,'11111222,11111222,99999999' 
TABS,ioos:station:wmo:42050:1,2006-05-03T04:30:00Z,28.8425,-94.2433,2.0,252.813528,14.65431336,-99999.0,'11111222,11111222,99999999' 
TABS,ioos:station:wmo:42050:1,2006-05-03T05:00:00Z,28.8425,-94.2433,2.0,261.3417614,16.27546005,-99999.0,'11111222,11111222,99999999' 
TABS,ioos:station:wmo:42050:1,2006-05-03T05:30:00Z,28.8425,-94.2433,2.0,273.0000692,18.3451356,-99999.0,'11111222,11111222,99999999' 
TABS,ioos:station:wmo:42050:1,2006-05-03T06:00:00Z,28.8425,-94.2433,2.0,278.6100726,20.10657853,-99999.0,'11111222,11111222,99999999' 
TABS,ioos:station:wmo:42050:1,2006-05-03T06:30:00Z,28.8425,-94.2433,2.0,289.3545361,18.13483388,-99999.0,'11111222,11111222,99999999' 
TABS,ioos:station:wmo:42050:1,2006-05-03T07:00:00Z,28.8425,-94.2433,2.0,303.6904097,17.41481266,-99999.0,'11111222,11111222,99999999' 
TABS,ioos:station:wmo:42050:1,2006-05-03T07:30:00Z,28.8425,-94.2433,2.0,315.0549871,14.82096488,-99999.0,'11111222,11111222,99999999' 
TABS,ioos:station:wmo:42050:1,2006-05-03T08:00:00Z,28.8425,-94.2433,2.0,326.3524518,15.05179391,-99999.0,'11111222,11111222,99999999' 
TABS,ioos:station:wmo:42050:1,2006-05-03T08:30:00Z,28.8425,-94.2433,2.0,326.5245881,13.34340661,-99999.0,'11111222,11111222,99999999' 
TABS,ioos:station:wmo:42050:1,2006-05-03T09:00:00Z,28.8425,-94.2433,2.0,334.4624583,15.21665206,-99999.0,'11111222,11111222,99999999' 
TABS,ioos:station:wmo:42050:1,2006-05-03T09:30:00Z,28.8425,-94.2433,2.0,336.4086513,11.293932,-99999.0,'11111222,11111222,99999999' 
TABS,ioos:station:wmo:42050:1,2006-05-03T10:00:00Z,28.8425,-94.2433,2.0,345.9317266,12.91744944,-99999.0,'11111222,11111222,99999999' 
TABS,ioos:station:wmo:42050:1,2006-05-03T10:30:00Z,28.8425,-94.2433,2.0,345.1214775,8.412044936,-99999.0,'11133222,11111222,99999999' 
TABS,ioos:station:wmo:42050:1,2006-05-03T11:00:00Z,28.8425,-94.2433,2.0,347.2605935,11.79025021,-99999.0,'11111222,11111222,99999999' 
TABS,ioos:station:wmo:42050:1,2006-05-03T11:30:00Z,28.8425,-94.2433,2.0,14.80762303,6.847400967,-99999.0,'11133222,11111222,99999999' 
TABS,ioos:station:wmo:42050:1,2006-05-03T12:00:00Z,28.8425,-94.2433,2.0,8.888829571,8.866481828,-99999.0,'11133222,11111222,99999999' 
TABS,ioos:station:wmo:42050:1,2006-05-03T12:30:00Z,28.8425,-94.2433,2.0,15.54870438,7.535781313,-99999.0,'11133222,11111222,99999999' 
TABS,ioos:station:wmo:42050:1,2006-05-03T13:00:00Z,28.8425,-94.2433,2.0,41.96014145,6.266713652,-99999.0,'11133222,11111222,99999999' 
TABS,ioos:station:wmo:42050:1,2006-05-03T13:30:00Z,28.8425,-94.2433,2.0,51.27738904,4.268231484,-99999.0,'11133222,11111222,99999999' 
TABS,ioos:station:wmo:42050:1,2006-05-03T14:00:00Z,28.8425,-94.2433,2.0,84.64418748,6.428063472,-99999.0,'11133222,11111222,99999999' 
TABS,ioos:station:wmo:42050:1,2006-05-03T14:30:00Z,28.8425,-94.2433,2.0,105.5624452,7.193733384,-99999.0,'11133222,11111222,99999999' 
TABS,ioos:station:wmo:42050:1,2006-05-03T15:00:00Z,28.8425,-94.2433,2.0,133.2389328,8.74396935,-99999.0,'11133222,11111222,99999999' 
TABS,ioos:station:wmo:42050:1,2006-05-03T15:30:00Z,28.8425,-94.2433,2.0,160.5432072,9.576899289,-99999.0,'11133222,11111222,99999999' 
TABS,ioos:station:wmo:42050:1,2006-05-03T16:00:00Z,28.8425,-94.2433,2.0,147.2599619,7.359110001,-99999.0,'11133222,11111222,99999999' 
TABS,ioos:station:wmo:42050:1,2006-05-03T16:30:00Z,28.8425,-94.2433,2.0,169.40625,6.744961082,-99999.0,'11133222,11111222,99999999' 
TABS,ioos:station:wmo:42050:1,2006-05-03T17:00:00Z,28.8425,-94.2433,2.0,166.938269,6.415995636,-99999.0,'11133222,11111222,99999999' 
TABS,ioos:station:wmo:42050:1,2006-05-03T17:30:00Z,28.8425,-94.2433,2.0,175.848514,8.702832872,-99999.0,'11133222,11111222,99999999' 
TABS,ioos:station:wmo:42050:1,2006-05-03T18:00:00Z,28.8425,-94.2433,2.0,187.9849902,7.270495169,-99999.0,'11133222,11111222,99999999' 
TABS,ioos:station:wmo:42050:1,2006-05-03T18:30:00Z,28.8425,-94.2433,2.0,206.8392936,6.533865625,-99999.0,'11133222,11111222,99999999' 
TABS,ioos:station:wmo:42050:1,2006-05-03T19:00:00Z,28.8425,-94.2433,2.0,196.1370284,6.15241416,-99999.0,'11133222,11111222,99999999' 
TABS,ioos:station:wmo:42050:1,2006-05-03T19:30:00Z,28.8425,-94.2433,2.0,203.8135574,9.782893233,-99999.0,'11133222,11111222,99999999' 
TABS,ioos:station:wmo:42050:1,2006-05-03T20:00:00Z,28.8425,-94.2433,2.0,223.4598496,7.8941624,-99999.0,'11133222,11111222,99999999' 
TABS,ioos:station:wmo:42050:1,2006-05-03T20:30:00Z,28.8425,-94.2433,2.0,221.8928497,7.69756455,-99999.0,'11133222,11111222,99999999' 
TABS,ioos:station:wmo:42050:1,2006-05-03T21:00:00Z,28.8425,-94.2433,2.0,229.379473,6.574077882,-99999.0,'11133222,11111222,99999999' 
TABS,ioos:station:wmo:42050:1,2006-05-03T21:30:00Z,28.8425,-94.2433,2.0,231.4694892,5.522318354,-99999.0,'11133222,11111222,99999999' 
TABS,ioos:station:wmo:42050:1,2006-05-03T22:00:00Z,28.8425,-94.2433,2.0,263.2595387,6.645931086,-99999.0,'11133222,11111222,99999999' 
TABS,ioos:station:wmo:42050:1,2006-05-03T22:30:00Z,28.8425,-94.2433,2.0,268.3456051,6.58274259,-99999.0,'11133222,11111222,99999999' 
TABS,ioos:station:wmo:42050:1,2006-05-03T23:00:00Z,28.8425,-94.2433,2.0,244.7198536,6.978287756,-99999.0,'11133222,11111222,99999999' 
TABS,ioos:station:wmo:42050:1,2006-05-03T23:30:00Z,28.8425,-94.2433,2.0,240.6115657,6.174568811,-99999.0,'11133222,11111222,99999999' 
TABS,ioos:station:wmo:42050:1,2006-05-04T00:00:00Z,28.8425,-94.2433,2.0,252.0199073,5.572109116,-99999.0,'11133222,11111222,99999999' 
TABS,ioos:station:wmo:42050:1,2006-05-04T00:30:00Z,28.8425,-94.2433,2.0,252.9618511,4.539217994,-99999.0,'11133222,11111222,99999999' 
TABS,ioos:station:wmo:42050:1,2006-05-04T01:00:00Z,28.8425,-94.2433,2.0,260.2590242,3.723680975,-99999.0,'11133222,11111222,99999999' 
TABS,ioos:station:wmo:42050:1,2006-05-04T01:30:00Z,28.8425,-94.2433,2.0,260.9601174,7.574067599,-99999.0,'11133222,11111222,99999999' 
TABS,ioos:station:wmo:42050:1,2006-05-04T02:00:00Z,28.8425,-94.2433,2.0,241.8842317,6.281178233,-99999.0,'11133222,11111222,99999999' 
TABS,ioos:station:wmo:42050:1,2006-05-04T02:30:00Z,28.8425,-94.2433,2.0,225.328966,4.921544473,-99999.0,'11133222,11111222,99999999' 
TABS,ioos:station:wmo:42050:1,2006-05-04T03:00:00Z,28.8425,-94.2433,2.0,232.9265925,5.640035461,-99999.0,'11133222,11111222,99999999' 
TABS,ioos:station:wmo:42050:1,2006-05-04T03:30:00Z,28.8425,-94.2433,2.0,256.7646539,5.896617675,-99999.0,'11133222,11111222,99999999' 
TABS,ioos:station:wmo:42050:1,2006-05-04T04:00:00Z,28.8425,-94.2433,2.0,215.4576012,5.843774465,-99999.0,'11133222,11111222,99999999' 
TABS,ioos:station:wmo:42050:1,2006-05-04T04:30:00Z,28.8425,-94.2433,2.0,219.8052676,7.810249676,-99999.0,'11133222,11111222,99999999' 
TABS,ioos:station:wmo:42050:1,2006-05-04T05:00:00Z,28.8425,-94.2433,2.0,224.8953208,7.764045337,-99999.0,'11133222,11111222,99999999' 
TABS,ioos:station:wmo:42050:1,2006-05-04T05:30:00Z,28.8425,-94.2433,2.0,220.0513621,6.558109484,-99999.0,'11133222,11111222,99999999' 
TABS,ioos:station:wmo:42050:1,2006-05-04T06:00:00Z,28.8425,-94.2433,2.0,247.4910774,7.52309112,-99999.0,'11133222,11111222,99999999' 
TABS,ioos:station:wmo:42050:1,2006-05-04T06:30:00Z,28.8425,-94.2433,2.0,245.889824,9.08230147,-99999.0,'11133222,11111222,99999999' 
TABS,ioos:station:wmo:42050:1,2006-05-04T07:00:00Z,28.8425,-94.2433,2.0,264.537098,7.353393774,-99999.0,'11133222,11111222,99999999' 
TABS,ioos:station:wmo:42050:1,2006-05-04T07:30:00Z,28.8425,-94.2433,2.0,243.9071957,7.048326042,-99999.0,'11133222,11111222,99999999' 
TABS,ioos:station:wmo:42050:1,2006-05-04T08:00:00Z,28.8425,-94.2433,2.0,261.501993,6.835034748,-99999.0,'11133222,11111222,99999999' 
TABS,ioos:station:wmo:42050:1,2006-05-04T08:30:00Z,28.8425,-94.2433,2.0,265.7608596,9.064794537,-99999.0,'11133222,11111222,99999999' 
TABS,ioos:station:wmo:42050:1,2006-05-04T09:00:00Z,28.8425,-94.2433,2.0,290.6302526,8.174160507,-99999.0,'11133222,11111222,99999999' 
TABS,ioos:station:wmo:42050:1,2006-05-04T09:30:00Z,28.8425,-94.2433,2.0,285.6338847,7.57005284,-99999.0,'11133222,11111222,99999999' 
TABS,ioos:station:wmo:42050:1,2006-05-04T10:00:00Z,28.8425,-94.2433,2.0,306.46957,6.006146851,-99999.0,'11133222,11111222,99999999' 
TABS,ioos:station:wmo:42050:1,2006-05-04T10:30:00Z,28.8425,-94.2433,2.0,342.5530628,6.603817078,-99999.0,'11133222,11111222,99999999' 
TABS,ioos:station:wmo:42050:1,2006-05-04T11:00:00Z,28.8425,-94.2433,2.0,331.5983813,9.208387481,-99999.0,'11133222,11111222,99999999' 
TABS,ioos:station:wmo:42050:1,2006-05-04T11:30:00Z,28.8425,-94.2433,2.0,352.175934,7.419070023,-99999.0,'11133222,11111222,99999999' 
TABS,ioos:station:wmo:42050:1,2006-05-04T12:00:00Z,28.8425,-94.2433,2.0,0.998086985,9.761480421,-99999.0,'11133222,11111222,99999999' 
TABS,ioos:station:wmo:42050:1,2006-05-04T12:30:00Z,28.8425,-94.2433,2.0,9.550022913,7.534414377,-99999.0,'11133222,11111222,99999999' 
TABS,ioos:station:wmo:42050:1,2006-05-04T13:00:00Z,28.8425,-94.2433,2.0,23.96933838,8.689332541,-99999.0,'11133222,11111222,99999999' 
TABS,ioos:station:wmo:42050:1,2006-05-04T13:30:00Z,28.8425,-94.2433,2.0,29.00431032,8.827049337,-99999.0,'11133222,11111222,99999999' 
TABS,ioos:station:wmo:42050:1,2006-05-04T14:00:00Z,28.8425,-94.2433,2.0,40.66890942,5.524137942,-99999.0,'11133222,11111222,99999999' 
TABS,ioos:station:wmo:42050:1,2006-05-04T14:30:00Z,28.8425,-94.2433,2.0,40.69246395,5.460146518,-99999.0,'11133222,11111222,99999999' 
TABS,ioos:station:wmo:42050:1,2006-05-04T15:00:00Z,28.8425,-94.2433,2.0,47.40031408,7.091431449,-99999.0,'11133222,11111222,99999999' 
TABS,ioos:station:wmo:42050:1,2006-05-04T15:30:00Z,28.8425,-94.2433,2.0,59.14586764,3.587756959,-99999.0,'11133222,11111222,99999999' 
TABS,ioos:station:wmo:42050:1,2006-05-04T16:00:00Z,28.8425,-94.2433,2.0,69.54303498,6.094341638,-99999.0,'11133222,11111222,99999999' 